BAW94DL EGLL-EDDM

Flight info

Callsign BAW94DL
Flight time 1h 24m
Altitude 39000
Route DET L6 DVR UL9 KONAN UL607 SPI DCT MOVUM T109 HAREM T104 ROKIL ROKIL1B
Aircraft A20N/M-SDGIJ1LRWXY/SB1

Departure

Time 2026-05-05 19:54
Airport London Heathrow Airport (EGLL)

Arrival

Time 2026-05-05 21:19
Airport Munich Airport (EDDM)
Time Latitude Longitude Altitude Speed Heading
2026-05-05 19:17 51.47187 -0.48599 86 ft 0 kts 269°
2026-05-05 19:17 51.47188 -0.48589 86 ft 0 kts 269°
2026-05-05 19:40 51.47188 -0.48552 86 ft 4 kts 269°
2026-05-05 19:40 51.47188 -0.48517 86 ft 4 kts 275°
2026-05-05 19:41 51.47180 -0.48480 88 ft 4 kts 328°
2026-05-05 19:41 51.47157 -0.48472 89 ft 4 kts 359°
2026-05-05 19:41 51.47149 -0.48472 87 ft 0 kts 359°
2026-05-05 19:45 51.47153 -0.48472 89 ft 1 kts 360°
2026-05-05 19:45 51.47182 -0.48473 88 ft 7 kts 359°
2026-05-05 19:46 51.47237 -0.48472 89 ft 8 kts
2026-05-05 19:46 51.47268 -0.48418 86 ft 8 kts 78°
2026-05-05 19:46 51.47249 -0.48363 88 ft 7 kts 152°
2026-05-05 19:46 51.47178 -0.48356 88 ft 14 kts 180°
2026-05-05 19:47 51.47064 -0.48355 87 ft 17 kts 180°
2026-05-05 19:47 51.46956 -0.48355 88 ft 14 kts 180°
2026-05-05 19:47 51.46876 -0.48354 86 ft 5 kts 180°
2026-05-05 19:47 51.46865 -0.48353 86 ft 4 kts 179°
2026-05-05 19:48 51.46815 -0.48353 86 ft 8 kts 179°
2026-05-05 19:48 51.46751 -0.48358 86 ft 6 kts 207°
2026-05-05 19:48 51.46742 -0.48448 86 ft 12 kts 272°
2026-05-05 19:48 51.46742 -0.48599 86 ft 11 kts 270°
2026-05-05 19:49 51.46740 -0.48701 86 ft 8 kts 261°
2026-05-05 19:49 51.46713 -0.48746 87 ft 8 kts 199°
2026-05-05 19:49 51.46634 -0.48750 86 ft 6 kts 191°
2026-05-05 19:49 51.46606 -0.48764 90 ft 1 kts 198°
2026-05-05 19:50 51.46578 -0.48779 87 ft 8 kts 200°
2026-05-05 19:50 51.46510 -0.48770 87 ft 7 kts 155°
2026-05-05 19:50 51.46479 -0.48703 88 ft 4 kts 102°
2026-05-05 19:50 51.46478 -0.48680 86 ft 0 kts 90°
2026-05-05 19:54 51.46478 -0.48609 86 ft 16 kts 90°
2026-05-05 19:54 51.46484 -0.48018 88 ft 96 kts 89°
2026-05-05 19:54 51.46488 -0.46571 92 ft 159 kts 90°
2026-05-05 19:54 51.46477 -0.44733 733 ft 164 kts 88°
2026-05-05 19:55 51.46501 -0.42923 1744 ft 158 kts 87°
2026-05-05 19:55 51.46368 -0.41095 2450 ft 176 kts 108°
2026-05-05 19:55 51.45752 -0.39259 3095 ft 198 kts 120°
2026-05-05 19:55 51.44931 -0.37294 3771 ft 225 kts 122°
2026-05-05 19:56 51.44085 -0.35032 4666 ft 249 kts 114°
2026-05-05 19:56 51.43404 -0.32355 5481 ft 268 kts 107°
2026-05-05 19:56 51.42877 -0.29473 5849 ft 272 kts 102°
2026-05-05 19:56 51.42450 -0.26513 6006 ft 273 kts 100°
2026-05-05 19:57 51.42067 -0.23540 6026 ft 272 kts 99°
2026-05-05 19:57 51.41817 -0.21570 6024 ft 272 kts 99°
2026-05-05 19:57 51.41297 -0.17594 6083 ft 274 kts 100°
2026-05-05 19:57 51.40895 -0.14607 6603 ft 278 kts 100°
2026-05-05 19:58 51.40479 -0.11569 7859 ft 279 kts 101°
2026-05-05 19:58 51.40056 -0.08499 9245 ft 287 kts 101°
2026-05-05 19:58 51.39623 -0.05366 10416 ft 299 kts 101°
2026-05-05 19:58 51.39157 -0.01991 11192 ft 322 kts 101°
2026-05-05 19:59 51.38655 0.01631 11959 ft 343 kts 101°
2026-05-05 19:59 51.38127 0.05412 13095 ft 350 kts 101°
2026-05-05 19:59 51.37588 0.09256 14220 ft 356 kts 102°
2026-05-05 19:59 51.37043 0.13145 15341 ft 360 kts 102°
2026-05-05 20:00 51.36489 0.17077 16402 ft 365 kts 102°
2026-05-05 20:00 51.35926 0.21069 17447 ft 370 kts 101°
2026-05-05 20:00 51.35358 0.25111 18463 ft 375 kts 101°
2026-05-05 20:00 51.34781 0.29214 19311 ft 381 kts 102°
2026-05-05 20:01 51.34190 0.33394 20147 ft 388 kts 102°
2026-05-05 20:01 51.33584 0.37657 20978 ft 394 kts 102°
2026-05-05 20:01 51.32978 0.41889 21917 ft 397 kts 102°
2026-05-05 20:01 51.32349 0.46274 22913 ft 403 kts 102°
2026-05-05 20:02 51.31716 0.50677 23718 ft 409 kts 102°
2026-05-05 20:02 51.31075 0.55121 24456 ft 412 kts 102°
2026-05-05 20:02 51.30424 0.59602 25190 ft 416 kts 104°
2026-05-05 20:02 51.29625 0.64068 25869 ft 420 kts 106°
2026-05-05 20:03 51.28812 0.68504 26551 ft 423 kts 107°
2026-05-05 20:03 51.27982 0.73036 27212 ft 427 kts 107°
2026-05-05 20:03 51.27142 0.77618 27851 ft 431 kts 107°
2026-05-05 20:03 51.26296 0.82227 28456 ft 434 kts 107°
2026-05-05 20:04 51.25439 0.86878 29028 ft 438 kts 108°
2026-05-05 20:04 51.24573 0.91567 29580 ft 442 kts 108°
2026-05-05 20:04 51.23697 0.96294 30102 ft 445 kts 108°
2026-05-05 20:04 51.22816 1.01041 30652 ft 446 kts 108°
2026-05-05 20:05 51.21931 1.05792 30880 ft 447 kts 108°
2026-05-05 20:05 51.20160 1.15278 30939 ft 446 kts 108°
2026-05-05 20:06 51.18384 1.24729 31227 ft 450 kts 108°
2026-05-05 20:06 51.17488 1.29488 32013 ft 445 kts 108°
2026-05-05 20:06 51.16651 1.34219 32799 ft 442 kts 104°
2026-05-05 20:06 51.16132 1.38976 33549 ft 440 kts 98°
2026-05-05 20:07 51.15886 1.43824 34226 ft 437 kts 96°
2026-05-05 20:07 51.15665 1.48658 34735 ft 437 kts 96°
2026-05-05 20:07 51.15435 1.53499 35110 ft 440 kts 97°
2026-05-05 20:07 51.15199 1.58361 35519 ft 441 kts 97°
2026-05-05 20:08 51.14958 1.63243 35884 ft 444 kts 97°
2026-05-05 20:08 51.14715 1.68151 36271 ft 445 kts 97°
2026-05-05 20:08 51.14468 1.73083 36649 ft 447 kts 97°
2026-05-05 20:08 51.14217 1.78035 36997 ft 449 kts 97°
2026-05-05 20:09 51.13964 1.83015 37343 ft 452 kts 97°
2026-05-05 20:09 51.13707 1.88011 37696 ft 454 kts 96°
2026-05-05 20:09 51.13449 1.92960 37987 ft 457 kts 96°
2026-05-05 20:09 51.13186 1.98010 38224 ft 460 kts 96°
2026-05-05 20:10 51.12917 2.03100 38633 ft 460 kts 96°
2026-05-05 20:10 51.12647 2.08186 38853 ft 462 kts 97°
2026-05-05 20:10 51.12374 2.13294 38923 ft 462 kts 96°
2026-05-05 20:11 51.11825 2.23459 38929 ft 462 kts 97°
2026-05-05 20:11 51.11265 2.33626 38914 ft 459 kts 97°
2026-05-05 20:12 51.10702 2.43711 38916 ft 458 kts 97°
2026-05-05 20:12 51.10130 2.53808 38910 ft 460 kts 97°
2026-05-05 20:13 51.09447 2.63886 38915 ft 459 kts 102°
2026-05-05 20:13 51.07938 2.73695 38910 ft 455 kts 108°
2026-05-05 20:14 51.06469 2.81755 38905 ft 456 kts 108°
2026-05-05 20:14 51.04717 2.91390 38905 ft 452 kts 108°
2026-05-05 20:15 51.02964 3.00986 38907 ft 453 kts 108°
2026-05-05 20:15 51.01201 3.10579 38901 ft 453 kts 108°
2026-05-05 20:16 50.99429 3.20166 38901 ft 452 kts 108°
2026-05-05 20:16 50.97647 3.29755 38891 ft 453 kts 108°
2026-05-05 20:17 50.95860 3.39319 38903 ft 452 kts 108°
2026-05-05 20:17 50.94064 3.48877 38884 ft 452 kts 109°
2026-05-05 20:18 50.92257 3.58431 38890 ft 452 kts 109°
2026-05-05 20:18 50.90465 3.67854 38884 ft 452 kts 109°
2026-05-05 20:19 50.88632 3.77375 38887 ft 451 kts 109°
2026-05-05 20:19 50.86792 3.86884 38888 ft 451 kts 109°
2026-05-05 20:20 50.84947 3.96366 38873 ft 451 kts 109°
2026-05-05 20:20 50.83092 4.05850 38889 ft 450 kts 109°
2026-05-05 20:21 50.81233 4.15313 38884 ft 450 kts 109°
2026-05-05 20:21 50.79369 4.24752 38884 ft 450 kts 109°
2026-05-05 20:22 50.77495 4.34196 38878 ft 449 kts 109°
2026-05-05 20:22 50.75612 4.43622 38884 ft 449 kts 110°
2026-05-05 20:23 50.73729 4.53017 38876 ft 449 kts 110°
2026-05-05 20:23 50.71855 4.62353 38879 ft 449 kts 109°
2026-05-05 20:24 50.70033 4.71770 38868 ft 449 kts 109°
2026-05-05 20:24 50.68214 4.81192 38864 ft 449 kts 109°
2026-05-05 20:25 50.66383 4.90605 38863 ft 449 kts 109°
2026-05-05 20:25 50.64490 4.99982 38861 ft 449 kts 110°
2026-05-05 20:26 50.62549 5.09336 38858 ft 449 kts 110°
2026-05-05 20:26 50.60613 5.18688 38864 ft 449 kts 110°
2026-05-05 20:27 50.58785 5.27514 38857 ft 449 kts 110°
2026-05-05 20:27 50.56881 5.36657 38856 ft 449 kts 110°
2026-05-05 20:28 50.54945 5.45906 38855 ft 449 kts 110°
2026-05-05 20:28 50.52982 5.55237 38855 ft 450 kts 110°
2026-05-05 20:29 50.51019 5.64571 38851 ft 450 kts 109°
2026-05-05 20:29 50.49304 5.74021 38858 ft 450 kts 108°
2026-05-05 20:30 50.47632 5.83492 38846 ft 450 kts 108°
2026-05-05 20:30 50.45922 5.92934 38843 ft 449 kts 108°
2026-05-05 20:31 50.44193 6.02358 38822 ft 449 kts 108°
2026-05-05 20:31 50.42455 6.11782 38817 ft 449 kts 108°
2026-05-05 20:32 50.40715 6.21186 38817 ft 449 kts 108°
2026-05-05 20:32 50.38977 6.30538 38808 ft 449 kts 108°
2026-05-05 20:33 50.37220 6.39929 38808 ft 449 kts 108°
2026-05-05 20:33 50.35451 6.49315 38798 ft 449 kts 109°
2026-05-05 20:34 50.33678 6.58675 38795 ft 449 kts 109°
2026-05-05 20:34 50.31910 6.67994 38800 ft 449 kts 109°
2026-05-05 20:35 50.30121 6.77374 38811 ft 449 kts 109°
2026-05-05 20:35 50.28324 6.86739 38821 ft 450 kts 109°
2026-05-05 20:36 50.26520 6.96097 38819 ft 450 kts 109°
2026-05-05 20:36 50.24699 7.05467 38824 ft 451 kts 109°
2026-05-05 20:37 50.22872 7.14832 38828 ft 451 kts 109°
2026-05-05 20:37 50.21036 7.24210 38829 ft 452 kts 109°
2026-05-05 20:38 50.19190 7.33592 38827 ft 452 kts 109°
2026-05-05 20:38 50.17337 7.42974 38808 ft 452 kts 110°
2026-05-05 20:39 50.15479 7.52344 38797 ft 453 kts 110°
2026-05-05 20:39 50.13621 7.61672 38798 ft 453 kts 110°
2026-05-05 20:40 50.11742 7.71046 38805 ft 453 kts 110°
2026-05-05 20:40 50.09850 7.80437 38798 ft 454 kts 110°
2026-05-05 20:41 50.07957 7.89794 38820 ft 453 kts 110°
2026-05-05 20:41 50.06234 7.98258 38830 ft 453 kts 110°
2026-05-05 20:42 50.02181 8.18041 38839 ft 453 kts 110°
2026-05-05 20:43 50.00259 8.27362 38836 ft 452 kts 111°
2026-05-05 20:43 49.98333 8.36653 38837 ft 452 kts 111°
2026-05-05 20:44 49.96411 8.45886 38828 ft 451 kts 111°
2026-05-05 20:44 49.94079 8.54890 38830 ft 447 kts 119°
2026-05-05 20:45 49.89533 8.67467 38803 ft 445 kts 123°
2026-05-05 20:45 49.86454 8.75813 38803 ft 445 kts 123°
2026-05-05 20:46 49.83368 8.84129 38800 ft 445 kts 123°
2026-05-05 20:46 49.80269 8.92446 38802 ft 446 kts 123°
2026-05-05 20:47 49.77165 9.00756 38804 ft 446 kts 123°
2026-05-05 20:47 49.74055 9.09062 38810 ft 446 kts 123°
2026-05-05 20:48 49.70984 9.17238 38817 ft 446 kts 123°
2026-05-05 20:48 49.67869 9.25502 38820 ft 446 kts 123°
2026-05-05 20:49 49.64740 9.33777 38824 ft 446 kts 123°
2026-05-05 20:49 49.61440 9.41848 38828 ft 443 kts 130°
2026-05-05 20:50 49.58181 9.47911 38814 ft 441 kts 135°
2026-05-05 20:50 49.53442 9.56182 38821 ft 441 kts 135°
2026-05-05 20:51 49.49390 9.63268 38835 ft 441 kts 135°
2026-05-05 20:51 49.45334 9.70337 38838 ft 441 kts 135°
2026-05-05 20:52 49.41959 9.76205 38832 ft 441 kts 135°
2026-05-05 20:52 49.37901 9.83248 38826 ft 441 kts 135°
2026-05-05 20:53 49.33832 9.90280 38827 ft 440 kts 135°
2026-05-05 20:53 49.29763 9.97287 38835 ft 440 kts 135°
2026-05-05 20:54 49.25711 10.04263 38075 ft 437 kts 135°
2026-05-05 20:54 49.23680 10.07746 36925 ft 441 kts 135°
2026-05-05 20:54 49.21622 10.11266 35666 ft 445 kts 135°
2026-05-05 20:55 49.19553 10.14801 34514 ft 446 kts 135°
2026-05-05 20:55 49.17485 10.18337 33302 ft 446 kts 134°
2026-05-05 20:55 49.15416 10.21873 31882 ft 447 kts 134°
2026-05-05 20:55 49.13355 10.25381 30332 ft 452 kts 135°
2026-05-05 20:56 49.11199 10.28899 28662 ft 455 kts 136°
2026-05-05 20:56 49.09019 10.32375 27397 ft 448 kts 136°
2026-05-05 20:56 49.06888 10.35767 26258 ft 440 kts 136°
2026-05-05 20:56 49.04792 10.39110 25356 ft 428 kts 136°
2026-05-05 20:57 49.02779 10.42330 24791 ft 409 kts 136°
2026-05-05 20:57 49.00863 10.45398 24500 ft 396 kts 136°
2026-05-05 20:57 48.98938 10.48465 24271 ft 403 kts 136°
2026-05-05 20:57 48.97006 10.51532 24038 ft 399 kts 136°
2026-05-05 20:58 48.95094 10.54569 23800 ft 396 kts 136°
2026-05-05 20:58 48.93189 10.57596 23562 ft 395 kts 136°
2026-05-05 20:58 48.91285 10.60621 23228 ft 398 kts 135°
2026-05-05 20:58 48.89365 10.63670 22665 ft 398 kts 135°
2026-05-05 20:59 48.87464 10.66690 22110 ft 392 kts 136°
2026-05-05 20:59 48.85600 10.69651 21554 ft 384 kts 136°
2026-05-05 20:59 48.83778 10.72545 21010 ft 375 kts 136°
2026-05-05 20:59 48.81990 10.75381 20474 ft 368 kts 136°
2026-05-05 21:00 48.80257 10.78122 19953 ft 361 kts 136°
2026-05-05 21:00 48.78531 10.80841 19432 ft 355 kts 136°
2026-05-05 21:00 48.76823 10.83521 18920 ft 351 kts 137°
2026-05-05 21:00 48.75056 10.86280 18432 ft 378 kts 136°
2026-05-05 21:01 48.73205 10.89170 18170 ft 383 kts 136°
2026-05-05 21:01 48.71345 10.92080 17475 ft 385 kts 136°
2026-05-05 21:01 48.69472 10.95009 16569 ft 387 kts 136°
2026-05-05 21:01 48.67628 10.97893 16179 ft 373 kts 137°
2026-05-05 21:02 48.65868 11.00641 15976 ft 355 kts 137°
2026-05-05 21:02 48.64192 11.03253 15817 ft 338 kts 137°
2026-05-05 21:02 48.62591 11.05743 15664 ft 321 kts 137°
2026-05-05 21:02 48.61080 11.08091 15452 ft 302 kts 137°
2026-05-05 21:03 48.59646 11.10316 15138 ft 290 kts 137°
2026-05-05 21:03 48.58238 11.12461 14744 ft 286 kts 141°
2026-05-05 21:03 48.56666 11.14282 14262 ft 284 kts 150°
2026-05-05 21:03 48.55025 11.15924 13740 ft 282 kts 150°
2026-05-05 21:04 48.53398 11.17569 13158 ft 280 kts 150°
2026-05-05 21:04 48.51802 11.19195 12770 ft 277 kts 149°
2026-05-05 21:04 48.50285 11.21050 12343 ft 284 kts 142°
2026-05-05 21:04 48.48833 11.23027 11715 ft 286 kts 142°
2026-05-05 21:05 48.47356 11.25038 11415 ft 278 kts 142°
2026-05-05 21:05 48.45954 11.26940 11075 ft 274 kts 143°
2026-05-05 21:05 48.44540 11.28852 10671 ft 273 kts 143°
2026-05-05 21:05 48.43123 11.30760 10255 ft 273 kts 143°
2026-05-05 21:06 48.41869 11.32930 9861 ft 280 kts 123°
2026-05-05 21:06 48.41336 11.35773 9429 ft 288 kts 95°
2026-05-05 21:06 48.41466 11.38776 9061 ft 288 kts 83°
2026-05-05 21:06 48.41816 11.41692 8886 ft 278 kts 80°
2026-05-05 21:07 48.42165 11.44495 8773 ft 266 kts 81°
2026-05-05 21:07 48.42462 11.47218 8539 ft 261 kts 83°
2026-05-05 21:07 48.42712 11.49904 8420 ft 261 kts 84°
2026-05-05 21:07 48.42940 11.52630 8360 ft 261 kts 84°
2026-05-05 21:08 48.43156 11.55342 8301 ft 260 kts 85°
2026-05-05 21:08 48.43366 11.58048 8230 ft 260 kts 85°
2026-05-05 21:08 48.43576 11.60755 8182 ft 260 kts 85°
2026-05-05 21:08 48.43786 11.63459 8121 ft 260 kts 85°
2026-05-05 21:09 48.43994 11.66152 8063 ft 259 kts 85°
2026-05-05 21:09 48.44203 11.68849 8006 ft 259 kts 85°
2026-05-05 21:09 48.44408 11.71506 7944 ft 258 kts 84°
2026-05-05 21:09 48.44612 11.74174 7880 ft 254 kts 84°
2026-05-05 21:10 48.44815 11.76828 7752 ft 256 kts 84°
2026-05-05 21:10 48.45018 11.79474 7502 ft 253 kts 84°
2026-05-05 21:10 48.45219 11.82102 7258 ft 251 kts 84°
2026-05-05 21:10 48.45418 11.84716 7011 ft 251 kts 84°
2026-05-05 21:11 48.45616 11.87315 6831 ft 247 kts 84°
2026-05-05 21:11 48.45813 11.89910 6710 ft 250 kts 84°
2026-05-05 21:11 48.46008 11.92489 6592 ft 248 kts 84°
2026-05-05 21:11 48.46204 11.95084 6472 ft 250 kts 84°
2026-05-05 21:12 48.46400 11.97698 6329 ft 252 kts 84°
2026-05-05 21:12 48.46591 12.00309 6078 ft 250 kts 84°
2026-05-05 21:12 48.46770 12.02910 5821 ft 248 kts 85°
2026-05-05 21:12 48.46558 12.05457 5560 ft 247 kts 115°
2026-05-05 21:13 48.45551 12.07471 5315 ft 239 kts 148°
2026-05-05 21:13 48.44087 12.08402 5067 ft 230 kts 173°
2026-05-05 21:13 48.42498 12.08849 4816 ft 229 kts 174°
2026-05-05 21:13 48.40939 12.09053 4555 ft 220 kts 194°
2026-05-05 21:14 48.39531 12.08392 4394 ft 211 kts 204°
2026-05-05 21:14 48.38184 12.07640 4285 ft 202 kts 210°
2026-05-05 21:14 48.37131 12.06389 4185 ft 188 kts 236°
2026-05-05 21:14 48.36542 12.04698 4080 ft 179 kts 253°
2026-05-05 21:15 48.36248 12.02906 3974 ft 173 kts 261°
2026-05-05 21:15 48.36072 12.01110 3875 ft 176 kts 263°
2026-05-05 21:15 48.35923 11.99277 3853 ft 184 kts 264°
2026-05-05 21:15 48.35779 11.97416 3717 ft 171 kts 264°
2026-05-05 21:16 48.35647 11.95706 3506 ft 159 kts 264°
2026-05-05 21:16 48.35524 11.94100 3303 ft 151 kts 264°
2026-05-05 21:16 48.35406 11.92566 3116 ft 145 kts 264°
2026-05-05 21:16 48.35294 11.91094 2928 ft 136 kts 264°
2026-05-05 21:17 48.35194 11.89797 2761 ft 119 kts 264°
2026-05-05 21:17 48.35095 11.88526 2599 ft 122 kts 263°
2026-05-05 21:17 48.34989 11.87248 2421 ft 123 kts 263°
2026-05-05 21:17 48.34880 11.85962 2248 ft 128 kts 264°
2026-05-05 21:18 48.34791 11.84640 2070 ft 125 kts 265°
2026-05-05 21:18 48.34702 11.83331 1865 ft 127 kts 264°
2026-05-05 21:18 48.34600 11.82019 1694 ft 126 kts 264°
2026-05-05 21:18 48.34501 11.80715 1555 ft 126 kts 264°
2026-05-05 21:19 48.34404 11.79436 1487 ft 114 kts 264°
2026-05-05 21:19 48.34326 11.78460 1479 ft 64 kts 263°
2026-05-05 21:19 48.34305 11.78136 1480 ft 20 kts 270°
2026-05-05 21:19 48.34325 11.77977 1470 ft 6 kts 287°
2026-05-05 21:20 48.34350 11.77867 1465 ft 16 kts 291°
2026-05-05 21:20 48.34401 11.77684 1464 ft 13 kts 294°
2026-05-05 21:20 48.34433 11.77578 1468 ft 12 kts 296°
2026-05-05 21:20 48.34480 11.77460 1464 ft 14 kts 320°
2026-05-05 21:21 48.34595 11.77421 1463 ft 15 kts 353°
2026-05-05 21:21 48.34643 11.77473 1458 ft 11 kts 88°
2026-05-05 21:21 48.34645 11.77602 1461 ft 9 kts 89°
2026-05-05 21:21 48.34645 11.77654 1462 ft 4 kts 89°
2026-05-05 21:22 48.34645 11.77664 1463 ft 0 kts 91°
2026-05-05 21:22 48.34652 11.77763 1462 ft 24 kts 79°
2026-05-05 21:22 48.34683 11.77902 1463 ft 11 kts 15°
2026-05-05 21:22 48.34782 11.77876 1466 ft 18 kts 351°
2026-05-05 21:23 48.34937 11.77849 1462 ft 26 kts 353°
2026-05-05 21:23 48.35123 11.77821 1462 ft 24 kts 356°
2026-05-05 21:23 48.35263 11.77796 1463 ft 22 kts 353°
2026-05-05 21:23 48.35417 11.77777 1459 ft 22 kts 355°
2026-05-05 21:24 48.35565 11.77742 1463 ft 21 kts 353°
2026-05-05 21:24 48.35707 11.77723 1466 ft 18 kts 355°
2026-05-05 21:24 48.35768 11.77751 1457 ft 8 kts 58°
2026-05-05 21:24 48.35781 11.77838 1464 ft 9 kts 81°
2026-05-05 21:25 48.35788 11.77924 1462 ft 8 kts 84°
2026-05-05 21:25 48.35792 11.78014 1466 ft 9 kts 90°
2026-05-05 21:25 48.35752 11.78077 1462 ft 9 kts 156°
2026-05-05 21:25 48.35709 11.78111 1461 ft 5 kts 134°
2026-05-05 21:26 48.35706 11.78156 1461 ft 4 kts 77°
2026-05-05 21:26 48.35710 11.78200 1463 ft 5 kts 83°
2026-05-05 21:26 48.35711 11.78212 1464 ft 2 kts 81°
2026-05-05 21:26 48.35714 11.78244 1466 ft 2 kts 83°
2026-05-05 21:27 48.35715 11.78255 1466 ft 0 kts 83°